TimeEST,TemperatureF,Dew PointF,Humidity,Sea Level PressureIn,VisibilityMPH,Wind Direction,Wind SpeedMPH,Gust SpeedMPH,PrecipitationIn,Events,Conditions,WindDirDegrees,DateUTC
12:53 AM,21.0,17.1,85,30.22,5.0,Calm,Calm,-,N/A,,Clear,0,2013-02-25 05:53:00
1:53 AM,21.9,17.1,82,30.21,6.0,Calm,Calm,-,N/A,,Haze,0,2013-02-25 06:53:00
2:53 AM,19.9,16.0,85,30.21,5.0,Calm,Calm,-,N/A,,Clear,0,2013-02-25 07:53:00
3:53 AM,19.9,16.0,85,30.20,6.0,Calm,Calm,-,N/A,,Clear,0,2013-02-25 08:53:00
4:53 AM,19.0,15.1,85,30.21,5.0,Calm,Calm,-,N/A,,Clear,0,2013-02-25 09:53:00
5:53 AM,19.9,16.0,85,30.24,5.0,Calm,Calm,-,N/A,,Clear,0,2013-02-25 10:53:00
6:53 AM,19.0,15.1,85,30.25,6.0,Calm,Calm,-,N/A,,Clear,0,2013-02-25 11:53:00
7:53 AM,19.9,17.1,89,30.25,4.0,Calm,Calm,-,N/A,,Clear,0,2013-02-25 12:53:00
8:53 AM,26.1,21.9,84,30.27,5.0,Calm,Calm,-,N/A,,Clear,0,2013-02-25 13:53:00
9:53 AM,30.9,21.0,67,30.24,8.0,NNE,3.5,-,N/A,,Clear,20,2013-02-25 14:53:00
10:53 AM,35.1,19.9,54,30.25,10.0,East,4.6,-,N/A,,Clear,100,2013-02-25 15:53:00
11:53 AM,39.0,19.9,46,30.23,10.0,ENE,10.4,-,N/A,,Clear,60,2013-02-25 16:53:00
12:53 PM,39.9,21.0,47,30.19,10.0,ENE,6.9,-,N/A,,Clear,60,2013-02-25 17:53:00
1:53 PM,42.1,19.0,40,30.17,10.0,East,6.9,-,N/A,,Clear,90,2013-02-25 18:53:00
2:53 PM,44.1,19.9,38,30.14,10.0,Variable,5.8,-,N/A,,Clear,0,2013-02-25 19:53:00
3:53 PM,45.0,19.9,37,30.11,10.0,East,6.9,16.1,N/A,,Clear,80,2013-02-25 20:53:00
4:53 PM,45.0,19.9,37,30.10,10.0,ENE,8.1,-,N/A,,Clear,70,2013-02-25 21:53:00
5:53 PM,44.1,19.9,38,30.12,10.0,ENE,5.8,-,N/A,,Clear,60,2013-02-25 22:53:00
6:53 PM,41.0,19.0,41,30.11,10.0,NE,4.6,-,N/A,,Clear,50,2013-02-25 23:53:00
7:53 PM,39.0,19.0,45,30.11,10.0,Calm,Calm,-,N/A,,Clear,0,2013-02-26 00:53:00
8:53 PM,37.0,19.9,50,30.07,10.0,NE,6.9,-,N/A,,Clear,50,2013-02-26 01:53:00
9:53 PM,35.1,19.9,54,30.06,10.0,East,6.9,-,N/A,,Clear,80,2013-02-26 02:53:00
10:53 PM,34.0,21.0,59,30.05,10.0,NE,6.9,-,N/A,,Clear,50,2013-02-26 03:53:00
11:53 PM,32.0,19.9,61,30.03,10.0,ENE,5.8,-,N/A,,Clear,60,2013-02-26 04:53:00